Location: Temple Hill
(37.3073°N, 88.6303°W)
Time: 16:41:44
(UTC+00:00)

Lacrosse 5 rocket - Pass Details

Date: 23 November 2020
Orbit: 461 x 634 km, 57.0° (Epoch: 19 January)

Event Time Altitude Azimuth Distance (km) Brightness Sun altitude
Rises 23:50:05 0° 205° (SSW) 2,546 5.3 -14.0°
Reaches altitude 10° 23:52:20 10° 197° (SSW) 1,647 4.2 -14.4°
Maximum altitude 23:55:49 41° 127° (SE) 695 1.5 -15.1°
Enters shadow 23:56:54 31° 84° (E) 836 1.7 -15.3°
